{"data":{"norad_id":64895,"epoch":"2026-09-21T20:57:46.134432Z","epoch_age_seconds":52559,"freshness":"FRESH","line1":"1 64895U 25155V   26264.87345063  .00006979  00000+0  23560-3 0  9995","line2":"2 64895  97.4693 233.8556 0006907 176.9172 183.2112 15.30983581 95532","mean_motion":15.30983581,"eccentricity":0.0006907,"inclination_deg":97.4693,"raan_deg":233.8556,"arg_perigee_deg":176.9172,"mean_anomaly_deg":183.2112,"bstar":0.0002356,"rev_number":9553,"period_min":94.057181139685,"perigee_km":468.14444075438,"apogee_km":477.60843071451,"semimajor_km":6851.0134357344,"source":"CELESTRAK","updated_at":"2026-09-22T09:00:30.019035Z"}}